FW3936 Weather Reports


Display with metric or nautical units.
time (UTC)temp
F
wind
direction
speed
MPH
gust
MPH
rain 1hr
in
rain 24hr
in
rain mn
in
humidity
%
barometer
mb
20260905104031 75 127 0.0 0.0 0.00 0.00 0.00 62 1014.3
20260905103532 75 127 0.0 0.0 0.00 0.00 0.00 62 1014.2
20260905103031 75 127 0.0 0.0 0.00 0.00 0.00 62 1014.3
20260905102530 75 127 0.0 1.0 0.00 0.00 0.00 63 1014.2
20260905102030 76 127 0.0 1.0 0.00 0.00 0.00 63 1014.3
20260905101545 76 127 0.0 1.0 0.00 0.00 0.00 63 1014.3
20260905101029 76 127 0.0 0.0 0.00 0.00 0.00 63 1014.3
20260905100528 76 127 0.0 0.0 0.00 0.00 0.00 64 1014.3
20260905100027 76 127 0.0 0.0 0.00 0.00 0.00 65 1014.3
20260905095528 76 127 0.0 0.0 0.00 0.00 0.00 66 1014.1
20260905095027 76 127 0.0 0.0 0.00 0.00 0.00 66 1014.2
20260905094527 76 127 0.0 0.0 0.00 0.00 0.00 67 1014.2
20260905094027 76 127 0.0 0.0 0.00 0.00 0.00 67 1014.2
20260905093526 76 127 0.0 0.0 0.00 0.00 0.00 67 1014.2
20260905093026 76 127 0.0 0.0 0.00 0.00 0.00 68 1014.1
20260905092525 76 127 0.0 0.0 0.00 0.00 0.00 69 1014.1
20260905092025 76 127 0.0 0.0 0.00 0.00 0.00 69 1014.2
20260905091526 76 127 0.0 0.0 0.00 0.00 0.00 69 1014.2
20260905091024 76 127 0.0 0.0 0.00 0.00 0.00 70 1014.2
20260905090524 76 127 0.0 0.0 0.00 0.00 0.00 70 1014.2
20260905090023 76 127 0.0 0.0 0.00 0.00 0.00 71 1014.2
20260905085521 76 127 0.0 0.0 0.00 0.00 0.00 71 1014.2
20260905085024 77 127 0.0 0.0 0.00 0.00 0.00 71 1014.3
20260905084521 77 127 0.0 0.0 0.00 0.00 0.00 71 1014.3
20260905084021 77 127 0.0 0.0 0.00 0.00 0.00 71 1014.2
20260905083520 77 127 0.0 0.0 0.00 0.00 0.00 71 1014.2
20260905083019 77 127 0.0 0.0 0.00 0.00 0.00 72 1014.3
20260905082518 77 127 0.0 0.0 0.00 0.00 0.00 72 1014.4
20260905082018 77 127 0.0 0.0 0.00 0.00 0.00 72 1014.3
20260905081517 77 127 0.0 1.0 0.00 0.00 0.00 72 1014.4
20260905081016 77 127 0.0 1.0 0.00 0.00 0.00 72 1014.4
20260905080516 77 127 0.0 4.0 0.00 0.00 0.00 72 1014.5
20260905080018 78 127 0.0 4.0 0.00 0.00 0.00 72 1014.5
20260905075515 78 127 0.0 3.0 0.00 0.00 0.00 72 1014.5
20260905075014 78 127 0.0 3.0 0.00 0.00 0.00 72 1014.5
20260905074519 78 127 0.0 4.0 0.00 0.00 0.00 72 1014.6
20260905074014 78 127 0.0 4.0 0.00 0.00 0.00 72 1014.6
20260905073513 78 127 0.0 2.0 0.00 0.00 0.00 72 1014.7
20260905073013 78 127 0.0 4.0 0.00 0.00 0.00 72 1014.7
20260905072513 78 127 1.0 4.0 0.00 0.00 0.00 72 1014.7
20260905072015 78 127 0.0 3.0 0.00 0.00 0.00 72 1014.8
20260905071518 78 127 0.0 5.0 0.00 0.00 0.00 72 1014.7
20260905071011 78 127 0.0 5.0 0.00 0.00 0.00 72 1014.8
20260905070511 78 128 0.0 0.0 0.00 0.00 0.00 72 1014.9
20260905070011 78 128 0.0 3.0 0.00 0.00 0.00 72 1014.9
20260905065512 78 128 0.0 3.0 0.00 0.00 0.00 72 1014.9
20260905065011 78 128 1.0 5.0 0.00 0.00 0.00 72 1014.9
20260905064514 78 128 1.0 5.0 0.00 0.00 0.00 72 1014.9
20260905064010 78 126 0.0 3.0 0.00 0.00 0.00 72 1014.9
20260905063509 78 126 0.0 3.0 0.00 0.00 0.00 72 1014.9
20260905063010 78 126 0.0 4.0 0.00 0.00 0.00 72 1014.9
20260905062514 78 126 0.0 5.0 0.00 0.00 0.00 72 1015.0
20260905062009 78 125 0.0 5.0 0.00 0.00 0.00 72 1015.0
20260905061513 78 125 1.0 5.0 0.00 0.00 0.00 72 1015.0
20260905061008 78 125 0.0 4.0 0.00 0.00 0.00 72 1014.9
20260905060508 78 124 1.0 4.0 0.00 0.00 0.00 71 1015.0
20260905060011 78 123 0.0 4.0 0.00 0.00 0.00 71 1015.0
20260905055506 77 123 1.0 5.0 0.00 0.00 0.00 71 1014.9
20260905055007 77 106 0.0 4.0 0.00 0.00 0.00 71 1015.0
20260905054509 77 104 0.0 5.0 0.00 0.00 0.00 71 1015.0
20260905054009 77 104 0.0 8.0 0.00 0.00 0.00 70 1015.0
20260905053505 77 104 0.0 8.0 0.00 0.00 0.00 70 1014.9
20260905053009 77 98 0.0 3.0 0.00 0.00 0.00 70 1015.0
20260905052505 77 97 0.0 5.0 0.00 0.00 0.00 70 1015.0
20260905052006 77 97 0.0 5.0 0.00 0.00 0.00 70 1015.0
20260905051504 77 97 0.0 3.0 0.00 0.00 0.00 70 1015.0
20260905051003 78 97 0.0 3.0 0.00 0.00 0.00 70 1015.0
20260905050502 78 97 0.0 3.0 0.00 0.00 0.00 70 1014.9
20260905050006 78 97 0.0 3.0 0.00 0.00 0.00 69 1014.9
20260905045503 78 97 0.0 3.0 0.00 0.00 0.00 69 1014.9
20260905045002 78 97 0.0 5.0 0.00 0.00 0.00 69 1014.9
20260905044502 78 97 0.0 5.0 0.00 0.00 0.00 69 1015.0
20260905044002 78 97 0.0 5.0 0.00 0.00 0.00 69 1015.0
20260905043501 78 97 0.0 5.0 0.00 0.00 0.00 69 1015.0
20260905043001 78 97 0.0 6.0 0.00 0.00 0.00 68 1015.0
20260905042500 78 97 0.0 6.0 0.00 0.00 0.00 69 1014.9
20260905042002 79 97 0.0 6.0 0.00 0.00 0.00 68 1014.9
20260905041605 79 97 0.0 6.0 0.00 0.00 0.00 68 1015.0
20260905041059 79 97 1.0 7.0 0.00 0.00 0.00 68 1014.9
20260905040559 79 97 1.0 7.0 0.00 0.00 0.00 68 1014.9
20260905040106 79 94 0.0 5.0 0.00 0.00 0.00 68 1014.9
20260905035602 79 94 0.0 5.0 0.00 0.00 0.00 68 1015.0
20260905035059 79 94 1.0 5.0 0.00 0.00 0.00 68 1015.0
20260905034616 79 94 0.0 5.0 0.00 0.00 0.00 67 1015.0
20260905034059 79 94 0.0 5.0 0.00 0.00 0.00 67 1015.0
20260905033559 79 94 0.0 3.0 0.00 0.00 0.00 67 1014.9
20260905033116 79 94 0.0 7.0 0.00 0.00 0.00 67 1014.8
20260905032559 79 94 0.0 7.0 0.00 0.00 0.00 67 1014.7
20260905032058 79 94 1.0 5.0 0.00 0.00 0.00 66 1014.7
20260905031612 80 94 0.0 5.0 0.00 0.00 0.00 66 1014.5
20260905031057 80 94 1.0 6.0 0.00 0.00 0.00 66 1014.5
20260905030558 80 94 2.0 6.0 0.00 0.00 0.00 66 1014.6
20260905025559 80 94 1.0 5.0 0.00 0.00 0.00 65 1014.5
20260905025057 81 94 2.0 5.0 0.00 0.00 0.00 65 1014.4
20260905024557 81 94 1.0 5.0 0.00 0.00 0.00 64 1014.4
20260905024057 81 94 0.0 5.0 0.00 0.00 0.00 64 1014.3
20260905023557 81 94 0.0 7.0 0.00 0.00 0.00 64 1014.2
20260905023124 81 94 2.0 8.0 0.00 0.00 0.00 64 1014.0
20260905022557 81 94 3.0 8.0 0.00 0.00 0.00 64 1014.0
20260905022056 81 95 4.0 9.0 0.00 0.00 0.00 63 1014.0
20260905021558 82 96 3.0 9.0 0.00 0.00 0.00 63 1013.9
20260905021056 82 98 3.0 9.0 0.00 0.00 0.00 63 1013.8
20260905020556 82 100 5.0 9.0 0.00 0.00 0.00 63 1013.8
20260905020056 82 92 3.0 10.0 0.00 0.00 0.00 62 1013.9
20260905015555 82 96 3.0 11.0 0.00 0.00 0.00 62 1013.9
20260905015057 82 100 2.0 11.0 0.00 0.00 0.00 62 1013.9
20260905014555 82 94 4.0 10.0 0.00 0.00 0.00 62 1013.8
20260905014058 82 98 2.0 10.0 0.00 0.00 0.00 62 1013.8
20260905013554 82 86 3.0 10.0 0.00 0.00 0.00 62 1013.7
20260905013054 82 88 4.0 10.0 0.00 0.00 0.00 61 1013.7
20260905012554 83 96 4.0 9.0 0.00 0.00 0.00 61 1013.6
20260905012057 83 100 4.0 8.0 0.00 0.00 0.00 61 1013.6
20260905011556 83 103 0.0 1.0 0.00 0.00 0.00 61 1013.6
20260905011056 83 102 0.0 2.0 0.00 0.00 0.00 60 1013.4
20260905010553 84 102 0.0 3.0 0.00 0.00 0.00 60 1013.4
20260905010105 84 102 0.0 5.0 0.00 0.00 0.00 59 1013.3
20260905005552 84 103 1.0 5.0 0.00 0.00 0.00 59 1013.2
20260905005055 85 102 0.0 2.0 0.00 0.00 0.00 58 1013.3
20260905004551 85 102 0.0 3.0 0.00 0.00 0.00 57 1013.3
20260905004052 85 103 0.0 3.0 0.00 0.00 0.00 57 1013.3
20260905003555 86 103 0.0 3.0 0.00 0.00 0.00 56 1013.3
20260905003052 86 103 0.0 3.0 0.00 0.00 0.00 56 1013.3
20260905002551 86 103 0.0 3.0 0.00 0.00 0.00 55 1013.3
20260905002051 86 103 0.0 5.0 0.00 0.00 0.00 55 1013.2
20260905001557 87 103 1.0 7.0 0.00 0.00 0.00 55 1013.1
20260905001050 87 104 2.0 13.0 0.00 0.00 0.00 54 1013.0
20260905000550 87 102 2.0 13.0 0.00 0.00 0.00 54 1012.8
20260905000100 87 103 2.0 10.0 0.00 0.00 0.00 53 1012.8
20260904235550 87 108 4.0 8.0 0.00 0.00 0.00 52 1012.7
20260904235049 87 111 2.0 8.0 0.00 0.00 0.00 52 1012.7
20260904234550 88 98 4.0 8.0 0.00 0.00 0.00 52 1012.7
20260904234049 88 109 2.0 7.0 0.00 0.00 0.00 50 1012.7
20260904233553 88 109 2.0 9.0 0.00 0.00 0.00 51 1012.6
20260904233050 88 108 2.0 9.0 0.00 0.00 0.00 50 1012.7
20260904232549 88 111 2.0 7.0 0.00 0.00 0.00 49 1012.7
20260904232052 88 111 1.0 10.0 0.00 0.00 0.00 48 1012.8
20260904231548 88 111 2.0 10.0 0.00 0.00 0.00 49 1012.8
20260904231047 88 103 5.0 9.0 0.00 0.00 0.00 49 1012.8
20260904230547 88 105 4.0 10.0 0.00 0.00 0.00 49 1012.8
20260904230105 89 115 3.0 10.0 0.00 0.00 0.00 49 1012.8
20260904225546 89 103 3.0 8.0 0.00 0.00 0.00 49 1012.7
20260904225046 89 96 4.0 10.0 0.00 0.00 0.00 47 1012.8
20260904224544 89 114 3.0 16.0 0.00 0.00 0.00 48 1012.7
20260904224044 89 86 4.0 16.0 0.00 0.00 0.00 51 1012.9
20260904223542 89 109 5.0 10.0 0.00 0.00 0.00 52 1013.0
20260904223044 89 98 3.0 10.0 0.00 0.00 0.00 52 1013.0
20260904222544 89 124 2.0 10.0 0.00 0.00 0.00 52 1013.0
20260904222040 89 102 4.0 10.0 0.00 0.00 0.00 52 1013.1
20260904221545 89 92 4.0 10.0 0.00 0.00 0.00 54 1013.1
20260904221039 89 101 3.0 8.0 0.00 0.00 0.00 54 1013.1
20260904220538 89 102 1.0 8.0 0.00 0.00 0.00 54 1013.2
20260904220044 89 126 3.0 8.0 0.00 0.00 0.00 54 1013.2
20260904215536 89 121 3.0 9.0 0.00 0.00 0.00 54 1013.2
20260904215035 90 135 5.0 9.0 0.00 0.00 0.00 54 1013.3
20260904214536 89 107 2.0 8.0 0.00 0.00 0.00 55 1013.5
20260904214033 88 98 2.0 11.0 0.00 0.00 0.00 57 1013.6
20260904213533 89 94 4.0 11.0 0.00 0.00 0.00 57 1013.6
20260904213033 88 96 1.0 7.0 0.00 0.00 0.00 57 1013.7
20260904212531 88 101 1.0 5.0 0.00 0.00 0.00 58 1013.8
20260904212032 87 100 0.0 6.0 0.00 0.00 0.00 59 1013.9
20260904211530 87 96 1.0 7.0 0.00 0.00 0.00 58 1014.1
20260904211029 87 94 2.0 9.0 0.00 0.00 0.00 59 1014.0
20260904210529 87 111 2.0 9.0 0.00 0.00 0.00 59 1014.1
20260904210028 87 112 3.0 9.0 0.00 0.00 0.00 58 1014.1
20260904205529 87 115 2.0 7.0 0.00 0.00 0.00 60 1014.1
20260904205028 87 115 1.0 5.0 0.00 0.00 0.00 60 1014.1
20260904204532 87 115 1.0 7.0 0.00 0.00 0.00 61 1014.2
20260904204028 87 115 3.0 7.0 0.00 0.00 0.00 61 1014.3
20260904203528 87 115 3.0 7.0 0.00 0.00 0.00 61 1014.3
20260904203026 87 116 2.0 7.0 0.00 0.00 0.00 62 1014.3
20260904202528 87 117 1.0 4.0 0.00 0.00 0.00 61 1014.3
20260904202024 87 117 1.0 4.0 0.00 0.00 0.00 61 1014.3
20260904201524 87 117 1.0 4.0 0.00 0.00 0.00 60 1014.4
20260904201023 88 117 1.0 4.0 0.00 0.00 0.00 59 1014.4
20260904200523 88 117 1.0 5.0 0.00 0.00 0.00 59 1014.5
20260904200026 88 117 2.0 5.0 0.00 0.00 0.00 59 1014.6
20260904195526 88 117 0.0 4.0 0.00 0.00 0.00 58 1014.6
20260904195021 88 117 1.0 5.0 0.00 0.00 0.00 60 1014.6
20260904194520 88 117 1.0 8.0 0.00 0.00 0.00 60 1014.6
20260904194018 87 118 2.0 7.0 0.00 0.00 0.00 61 1014.6
20260904193518 87 105 2.0 5.0 0.00 0.00 0.00 62 1014.7
20260904193017 86 105 2.0 5.0 0.00 0.00 0.00 62 1014.8
20260904192516 86 105 1.0 5.0 0.00 0.00 0.00 63 1014.8
20260904192016 86 105 2.0 7.0 0.00 0.00 0.00 63 1014.9
20260904191523 86 105 1.0 7.0 0.00 0.00 0.00 62 1014.9
20260904191016 86 105 2.0 7.0 0.00 0.00 0.00 63 1015.0
20260904190516 86 105 2.0 5.0 0.00 0.00 0.00 63 1015.0
20260904190015 87 105 2.0 5.0 0.00 0.00 0.00 62 1015.0
20260904185515 87 104 2.0 7.0 0.00 0.00 0.00 63 1015.0
20260904185014 87 103 2.0 7.0 0.00 0.00 0.00 62 1015.1
20260904184514 87 103 2.0 8.0 0.00 0.00 0.00 63 1015.2
20260904184013 87 116 2.0 9.0 0.00 0.00 0.00 63 1015.2
20260904183513 86 117 4.0 10.0 0.00 0.00 0.00 63 1015.2
20260904183011 86 107 4.0 9.0 0.00 0.00 0.00 63 1015.3
20260904182510 86 111 2.0 0.0 0.00 0.00 0.00 63 1015.3
20260904182010 86 117 2.0 7.0 0.00 0.00 0.00 63 1015.3
20260904181510 86 117 0.0 5.0 0.00 0.00 0.00 63 1015.4
20260904181009 86 117 1.0 8.0 0.00 0.00 0.00 63 1015.5
20260904180509 86 117 3.0 8.0 0.00 0.00 0.00 63 1015.4
20260904180008 86 119 3.0 8.0 0.00 0.00 0.00 63 1015.5
20260904175506 86 121 0.0 5.0 0.00 0.00 0.00 63 1015.5
20260904175005 85 121 1.0 8.0 0.00 0.00 0.00 63 1015.5
20260904174505 85 122 2.0 7.0 0.00 0.00 0.00 64 1015.5
20260904174003 85 128 2.0 7.0 0.00 0.00 0.00 65 1015.6
20260904173505 85 131 3.0 6.0 0.00 0.00 0.00 64 1015.7
20260904173007 85 131 2.0 5.0 0.00 0.00 0.00 63 1015.7
20260904172503 85 130 2.0 5.0 0.00 0.00 0.00 64 1015.8
20260904172002 84 130 2.0 7.0 0.00 0.00 0.00 64 1015.8
20260904171502 85 131 1.0 7.0 0.00 0.00 0.00 64 1015.9
20260904171001 85 123 2.0 7.0 0.00 0.00 0.00 64 1016.0
20260904170600 85 121 1.0 7.0 0.00 0.00 0.00 65 1016.0
20260904170059 84 120 3.0 7.0 0.00 0.00 0.00 65 1015.9
20260904165602 84 119 1.0 4.0 0.00 0.00 0.00 66 1016.0
20260904165101 84 119 0.0 7.0 0.00 0.00 0.00 67 1016.0
20260904164614 84 119 2.0 7.0 0.00 0.00 0.00 67 1016.1
20260904164058 84 119 2.0 7.0 0.00 0.00 0.00 68 1016.1
20260904163558 84 119 1.0 4.0 0.00 0.00 0.00 68 1016.0
20260904163100 84 119 1.0 7.0 0.00 0.00 0.00 67 1016.0
20260904162557 84 120 1.0 8.0 0.00 0.00 0.00 68 1016.1
20260904162056 84 120 2.0 8.0 0.00 0.00 0.00 68 1016.2
20260904161554 83 121 2.0 5.0 0.00 0.00 0.00 69 1016.3
20260904161052 83 121 0.0 5.0 0.00 0.00 0.00 69 1016.2
20260904160552 83 121 1.0 5.0 0.00 0.00 0.00 69 1016.2
20260904160051 83 121 0.0 3.0 0.00 0.00 0.00 70 1016.2
20260904155550 82 121 0.0 5.0 0.00 0.00 0.00 70 1016.2
20260904155048 82 121 2.0 5.0 0.00 0.00 0.00 70 1016.1
20260904154547 82 121 1.0 5.0 0.00 0.00 0.00 71 1016.1
20260904154046 81 121 1.0 7.0 0.00 0.00 0.00 71 1016.0
20260904153546 81 121 3.0 7.0 0.00 0.00 0.00 71 1016.0
20260904153104 81 121 2.0 4.0 0.00 0.00 0.00 71 1016.0
20260904152544 81 121 1.0 3.0 0.00 0.00 0.00 71 1016.0
20260904152043 81 121 0.0 3.0 0.00 0.00 0.00 72 1015.9
20260904151546 80 121 1.0 4.0 0.00 0.00 0.00 72 1015.8
20260904151041 80 121 2.0 7.0 0.00 0.00 0.00 72 1015.8
20260904150540 80 121 1.0 8.0 0.00 0.00 0.00 72 1015.8
20260904150045 79 123 2.0 8.0 0.00 0.00 0.00 72 1015.8
20260904145539 79 122 1.0 4.0 0.00 0.00 0.00 71 1015.8
20260904145043 79 122 2.0 4.0 0.00 0.00 0.00 71 1015.7
20260904144538 79 122 0.0 4.0 0.00 0.00 0.00 71 1015.7
20260904144037 79 121 0.0 5.0 0.00 0.00 0.00 71 1015.8
20260904143536 79 122 1.0 5.0 0.00 0.00 0.00 71 1015.7
20260904143035 78 121 1.0 7.0 0.00 0.00 0.00 71 1015.7
20260904142534 78 122 2.0 7.0 0.00 0.00 0.00 71 1015.7
20260904142035 78 119 2.0 5.0 0.00 0.00 0.00 70 1015.6
20260904141534 78 119 1.0 5.0 0.00 0.00 0.00 70 1015.6
20260904141033 78 119 0.0 5.0 0.00 0.00 0.00 70 1015.6
20260904140532 78 119 1.0 5.0 0.00 0.00 0.00 70 1015.6
20260904140035 78 119 1.0 5.0 0.00 0.00 0.00 70 1015.5
20260904135532 78 119 2.0 5.0 0.00 0.00 0.00 70 1015.5
20260904135031 78 119 2.0 8.0 0.00 0.00 0.00 70 1015.5
20260904134535 78 120 2.0 8.0 0.00 0.00 0.00 70 1015.4
20260904134030 78 126 2.0 7.0 0.00 0.00 0.00 70 1015.3
20260904133530 78 120 2.0 7.0 0.00 0.00 0.00 69 1015.3
20260904133030 78 121 2.0 5.0 0.00 0.00 0.00 69 1015.3
20260904132529 77 120 1.0 7.0 0.00 0.00 0.00 69 1015.1
20260904132028 77 120 2.0 7.0 0.00 0.00 0.00 70 1015.2
20260904131539 77 128 1.0 4.0 0.00 0.00 0.00 70 1015.2
20260904131026 77 128 1.0 4.0 0.00 0.00 0.00 70 1015.3
20260904130528 77 128 2.0 5.0 0.00 0.00 0.00 70 1015.3
20260904130024 77 128 1.0 5.0 0.00 0.00 0.00 70 1015.1
20260904125524 77 128 1.0 5.0 0.00 0.00 0.00 70 1015.0
20260904125022 77 129 2.0 5.0 0.00 0.00 0.00 70 1014.8
20260904124521 77 129 2.0 5.0 0.00 0.00 0.00 71 1014.8
20260904124019 77 130 2.0 4.0 0.00 0.00 0.00 71 1014.8
20260904123520 77 130 1.0 4.0 0.00 0.00 0.00 71 1014.8
20260904123019 77 130 2.0 4.0 0.00 0.00 0.00 71 1014.7
20260904122518 77 130 2.0 4.0 0.00 0.00 0.00 71 1014.7
20260904122017 77 130 0.0 4.0 0.00 0.00 0.00 71 1014.7
20260904121517 77 130 2.0 5.0 0.00 0.00 0.00 71 1014.7
20260904121014 77 130 1.0 5.0 0.00 0.00 0.00 71 1014.6
20260904120514 77 130 0.0 5.0 0.00 0.00 0.00 71 1014.5
20260904120019 77 130 1.0 4.0 0.00 0.00 0.00 71 1014.4
20260904115513 77 130 1.0 6.0 0.00 0.00 0.00 71 1014.5
20260904115016 77 130 1.0 6.0 0.00 0.00 0.00 72 1014.3
20260904114513 77 130 1.0 4.0 0.00 0.00 0.00 72 1014.3
20260904114012 77 130 1.0 4.0 0.00 0.00 0.00 72 1014.2
20260904113513 77 130 1.0 6.0 0.00 0.00 0.00 72 1014.2
20260904113031 77 130 2.0 6.0 0.00 0.00 0.00 72 1014.0
20260904112512 77 131 1.0 6.0 0.00 0.00 0.00 72 1014.0
20260904112012 77 133 2.0 6.0 0.00 0.00 0.00 72 1014.1
20260904111512 77 134 1.0 4.0 0.00 0.00 0.00 72 1014.2
20260904111012 77 134 1.0 4.0 0.00 0.00 0.00 72 1014.3
20260904110512 77 134 1.0 4.0 0.00 0.00 0.00 72 1014.2
20260904110011 77 134 1.0 4.0 0.00 0.00 0.00 72 1014.1
20260904105511 77 134 1.0 3.0 0.00 0.00 0.00 72 1014.0
20260904105013 77 134 1.0 4.0 0.00 0.00 0.00 72 1014.1
20260904104511 77 134 1.0 4.0 0.00 0.00 0.00 72 1014.0